KD8UGJ Weather Reports


time (UTC)temp
C
wind
direction
speed
KPH
gust
KPH
rain 1hr
cm
rain 24hr
cm
rain mn
cm
humidity
%
barometer
mb
20260903024544 26 182 3.2 8.0 0.00 0.00 0.00 86 1013.2
20260903023044 26 204 4.8 9.7 0.00 0.00 0.00 86 1013.5
20260903021546 26 163 1.6 6.4 0.00 0.00 0.00 86 1013.5
20260903020048 26 175 3.2 8.0 0.00 0.00 0.00 86 1013.4
20260903014549 26 180 3.2 6.4 0.00 0.00 0.00 86 1013.4
20260903013042 26 360 3.2 4.8 0.00 0.00 0.00 85 1013.4
20260903011556 26 177 1.6 4.8 0.00 0.00 0.00 84 1013.4
20260903010041 27 196 1.6 4.8 0.00 0.00 0.00 83 1013.2
20260903004541 27 360 0.0 6.4 0.00 0.00 0.00 82 1013.2
20260903003042 27 360 1.6 4.8 0.00 0.00 0.00 81 1013.0
20260903001541 28 248 0.0 3.2 0.00 0.00 0.00 78 1013.0
20260903000038 30 257 0.0 6.4 0.00 0.03 0.00 75 1013.1
20260902234542 30 214 1.6 8.0 0.00 0.03 0.00 73 1013.1
20260902233048 31 188 3.2 9.7 0.00 0.03 0.00 72 1013.1
20260902231550 31 360 1.6 12.9 0.00 0.03 0.00 71 1013.0
20260902230036 32 219 1.6 9.7 0.00 0.03 0.00 69 1013.0
20260902224544 32 209 3.2 14.5 0.00 0.03 0.00 67 1013.0
20260902223035 32 228 8.0 17.7 0.00 0.03 0.00 66 1013.0
20260902221542 33 360 4.8 19.3 0.00 0.03 0.00 65 1013.2
20260902220034 33 244 3.2 19.3 0.00 0.03 0.00 65 1013.1
20260902214533 33 184 6.4 22.5 0.00 0.03 0.00 64 1013.2
20260902213032 33 206 3.2 17.7 0.00 0.03 0.00 65 1013.3
20260902211540 33 198 8.0 24.1 0.00 0.03 0.00 64 1013.3
20260902210030 33 188 6.4 17.7 0.00 0.03 0.00 65 1013.5
20260902204529 33 360 4.8 22.5 0.00 0.03 0.00 65 1013.6
20260902203027 34 232 9.7 22.5 0.00 0.03 0.00 62 1013.7
20260902201533 34 240 8.0 17.7 0.00 0.03 0.00 64 1013.9
20260902200021 33 232 8.0 16.1 0.00 0.03 0.00 64 1014.0
20260902194518 34 236 6.4 19.3 0.00 0.03 0.00 67 1014.1
20260902193017 33 252 6.4 16.1 0.00 0.03 0.00 66 1014.3
20260902191514 33 242 8.0 19.3 0.00 0.03 0.00 65 1014.5
20260902190012 33 230 3.2 14.5 0.00 0.03 0.00 67 1014.6
20260902184509 33 207 8.0 25.7 0.00 0.03 0.00 66 1014.9
20260902183010 33 234 8.0 16.1 0.00 0.03 0.00 65 1015.1
20260902181502 33 360 6.4 20.9 0.00 0.03 0.00 65 1015.0
20260902180130 33 225 8.0 16.1 0.00 0.03 0.00 65 1015.2
20260902174558 32 360 6.4 16.1 0.00 0.03 0.00 65 1015.3
20260902173055 32 258 4.8 17.7 0.00 0.03 0.00 69 1015.5
20260902171554 32 197 6.4 16.1 0.00 0.03 0.00 68 1015.6
20260902170051 32 225 3.2 8.0 0.00 0.03 0.00 69 1015.6
20260902164552 31 228 3.2 14.5 0.00 0.03 0.00 71 1016.1
20260902163057 32 360 4.8 16.1 0.00 0.03 0.00 73 1016.0
20260902161553 31 271 8.0 17.7 0.00 0.03 0.00 71 1016.2
20260902160045 31 256 6.4 17.7 0.00 0.03 0.00 72 1016.1
20260902154544 31 277 6.4 14.5 0.00 0.03 0.00 73 1016.0
20260902153041 30 360 3.2 12.9 0.00 0.03 0.00 76 1016.0
20260902151538 30 198 4.8 12.9 0.00 0.03 0.00 77 1016.0
20260902150036 30 230 3.2 12.9 0.00 0.05 0.00 78 1016.0
20260902144537 29 232 3.2 12.9 0.00 0.05 0.00 78 1016.0
20260902143031 28 225 3.2 12.9 0.00 0.05 0.00 80 1015.8
20260902141528 28 246 3.2 9.7 0.00 0.05 0.00 82 1015.8
20260902140024 27 209 3.2 9.7 0.00 0.05 0.00 82 1015.7
20260902134533 27 360 4.8 16.1 0.00 0.05 0.00 83 1015.7
20260902133022 26 182 1.6 12.9 0.00 0.05 0.00 87 1015.6
20260902131515 26 196 3.2 9.7 0.00 0.05 0.00 88 1015.7
20260902130013 25 182 3.2 8.0 0.00 0.05 0.00 91 1015.8
20260902124508 24 195 1.6 9.7 0.00 0.05 0.00 93 1015.7
20260902123008 23 175 1.6 6.4 0.00 0.05 0.00 95 1015.8
20260902121507 22 180 1.6 6.4 0.00 0.05 0.00 95 1015.8
20260902120006 22 189 1.6 4.8 0.00 0.05 0.00 96 1015.7
20260902114505 22 170 1.6 6.4 0.00 0.05 0.00 96 1015.5
20260902113003 22 160 3.2 8.0 0.00 0.05 0.00 95 1015.5
20260902111506 21 157 1.6 8.0 0.00 0.05 0.00 95 1015.4
20260902110107 22 178 1.6 4.8 0.00 0.05 0.00 95 1015.2
20260902104600 22 171 3.2 6.4 0.00 0.05 0.00 95 1015.2
20260902103058 22 170 3.2 6.4 0.00 0.05 0.00 95 1015.0
20260902101605 22 183 1.6 6.4 0.00 0.05 0.00 95 1015.1
20260902100109 22 180 1.6 4.8 0.00 0.05 0.00 95 1015.0
20260902094555 22 183 1.6 4.8 0.00 0.05 0.00 95 1015.0
20260902093054 22 190 3.2 6.4 0.00 0.05 0.00 94 1015.0
20260902091555 22 172 1.6 6.4 0.00 0.05 0.00 94 1015.0
20260902090050 23 181 3.2 6.4 0.00 0.05 0.00 94 1015.1
20260902084559 23 164 0.0 1.6 0.00 0.05 0.00 94 1015.1
20260902083049 23 171 1.6 4.8 0.00 0.05 0.00 94 1014.9
20260902081647 23 175 3.2 6.4 0.00 0.05 0.00 94 1014.9
20260902080048 23 184 4.8 8.0 0.00 0.05 0.00 94 1014.7
20260902074546 23 175 3.2 8.0 0.00 0.05 0.00 94 1014.7
20260902073052 23 189 3.2 6.4 0.00 0.05 0.00 94 1014.6
20260902071545 23 186 0.0 4.8 0.00 0.05 0.00 93 1014.6
20260902070045 23 172 0.0 6.4 0.00 0.05 0.00 93 1014.7
20260902064549 23 208 1.6 4.8 0.00 0.05 0.00 93 1014.7
20260902063050 23 209 1.6 4.8 0.00 0.05 0.00 93 1014.8
20260902061551 23 213 1.6 6.4 0.00 0.05 0.00 93 1014.8
20260902060038 23 360 1.6 6.4 0.00 0.05 0.00 92 1014.9
20260902054546 23 207 0.0 4.8 0.00 0.05 0.00 92 1015.1
20260902053044 24 196 1.6 6.4 0.00 0.05 0.00 92 1014.9
20260902051538 24 213 1.6 6.4 0.00 0.05 0.00 92 1015.0
20260902050034 23 239 1.6 4.8 0.00 0.05 0.05 93 1014.8
20260902044532 23 213 0.0 3.2 0.00 0.05 0.05 93 1014.7
20260902043031 24 214 0.0 0.0 0.00 0.05 0.05 93 1014.6
20260902041533 24 213 0.0 4.8 0.00 0.05 0.05 94 1014.5
20260902040033 24 219 1.6 6.4 0.00 0.05 0.05 95 1014.2
20260902034530 23 186 4.8 8.0 0.00 0.05 0.05 95 1013.9
20260902033030 23 167 4.8 8.0 0.00 0.05 0.05 95 1014.2
20260902031529 23 265 0.0 0.0 0.00 0.05 0.05 94 1014.4
20260902030028 23 276 0.0 0.0 0.00 0.05 0.05 95 1014.6